Time,TemperatureF,DewpointF,PressureIn,WindDirection,WindDirectionDegrees,WindSpeedMPH,WindSpeedGustMPH,Humidity,HourlyPrecipIn,Conditions,Clouds,dailyrainin,SoftwareType,DateUTC
2013-03-21 00:00:00,17.0,12.2,30.00,WSW,253,3.0,8.0,81,0.00,,---,0.00,VWS V14.01,2013-03-21 05:00:00,
2013-03-21 00:05:00,16.9,12.1,30.00,WSW,255,2.0,8.0,81,0.00,,---,0.00,VWS V14.01,2013-03-21 05:05:00,
2013-03-21 00:10:00,16.8,12.3,29.99,West,260,2.0,8.0,82,0.00,,---,0.00,VWS V14.01,2013-03-21 05:10:00,
2013-03-21 00:15:00,16.7,12.2,29.99,WSW,253,2.0,8.0,82,0.00,,---,0.00,VWS V14.01,2013-03-21 05:15:00,
2013-03-21 00:20:00,16.7,12.4,29.99,West,278,3.0,8.0,83,0.00,,---,0.00,VWS V14.01,2013-03-21 05:20:00,
2013-03-21 00:25:00,16.7,12.4,29.99,WNW,287,5.0,8.0,83,0.00,,---,0.00,VWS V14.01,2013-03-21 05:25:00,
2013-03-21 00:30:00,16.7,12.4,29.99,West,271,2.0,4.0,83,0.00,,---,0.00,VWS V14.01,2013-03-21 05:30:00,
2013-03-21 00:35:00,16.7,12.4,29.99,West,274,2.0,5.0,83,0.00,,---,0.00,VWS V14.01,2013-03-21 05:35:00,
2013-03-21 00:40:00,16.6,12.4,29.99,WSW,250,0.0,5.0,83,0.00,,---,0.00,VWS V14.01,2013-03-21 05:40:00,
2013-03-21 00:45:00,16.4,12.1,29.99,West,266,1.0,5.0,83,0.00,,---,0.00,VWS V14.01,2013-03-21 05:45:00,
2013-03-21 00:50:00,16.5,12.5,29.99,NW,304,2.0,5.0,84,0.00,,---,0.00,VWS V14.01,2013-03-21 05:50:00,
2013-03-21 00:55:00,16.6,12.6,29.99,West,264,2.0,5.0,84,0.00,,---,0.00,VWS V14.01,2013-03-21 05:55:00,
2013-03-21 01:00:00,16.6,12.6,29.99,West,273,1.0,2.0,84,0.00,,---,0.00,VWS V14.01,2013-03-21 06:00:00,
2013-03-21 01:05:00,16.6,12.6,29.99,WSW,256,1.0,5.0,84,0.00,,---,0.00,VWS V14.01,2013-03-21 06:05:00,
2013-03-21 01:10:00,16.5,12.5,29.99,WNW,285,2.0,5.0,84,0.00,,---,0.00,VWS V14.01,2013-03-21 06:10:00,
2013-03-21 01:15:00,16.4,12.4,29.99,West,263,2.0,5.0,84,0.00,,---,0.00,VWS V14.01,2013-03-21 06:15:00,
2013-03-21 01:20:00,16.3,12.3,29.99,WSW,240,1.0,5.0,84,0.00,,---,0.00,VWS V14.01,2013-03-21 06:20:00,
2013-03-21 01:25:00,16.3,12.3,29.99,West,262,3.0,6.0,84,0.00,,---,0.00,VWS V14.01,2013-03-21 06:25:00,
2013-03-21 01:30:00,16.3,12.3,29.99,WSW,255,2.0,5.0,84,0.00,,---,0.00,VWS V14.01,2013-03-21 06:30:00,
2013-03-21 01:35:00,16.2,12.5,29.99,WSW,252,4.0,6.0,85,0.00,,---,0.00,VWS V14.01,2013-03-21 06:35:00,
2013-03-21 01:40:00,16.2,12.5,29.99,WSW,247,2.0,6.0,85,0.00,,---,0.00,VWS V14.01,2013-03-21 06:40:00,
2013-03-21 01:45:00,16.1,12.4,29.99,West,261,3.0,6.0,85,0.00,,---,0.00,VWS V14.01,2013-03-21 06:45:00,
2013-03-21 01:50:00,16.1,12.4,29.99,West,277,4.0,7.0,85,0.00,,---,0.00,VWS V14.01,2013-03-21 06:50:00,
2013-03-21 01:55:00,16.2,12.5,29.99,West,265,1.0,7.0,85,0.00,,---,0.00,VWS V14.01,2013-03-21 06:55:00,
2013-03-21 02:00:00,16.2,12.5,29.98,West,273,4.0,5.0,85,0.00,,---,0.00,VWS V14.01,2013-03-21 07:00:00,
2013-03-21 02:05:00,16.1,12.4,29.99,WSW,252,2.0,6.0,85,0.00,,---,0.00,VWS V14.01,2013-03-21 07:05:00,
2013-03-21 02:10:00,16.2,12.5,29.99,SW,236,4.0,6.0,85,0.00,,---,0.00,VWS V14.01,2013-03-21 07:10:00,
2013-03-21 02:15:00,16.1,12.4,29.98,WNW,283,2.0,6.0,85,0.00,,---,0.00,VWS V14.01,2013-03-21 07:15:00,
2013-03-21 02:20:00,16.1,12.4,29.99,WSW,254,3.0,6.0,85,0.00,,---,0.00,VWS V14.01,2013-03-21 07:20:00,
2013-03-21 02:25:00,16.0,12.3,29.98,WSW,257,2.0,8.0,85,0.00,,---,0.00,VWS V14.01,2013-03-21 07:25:00,
2013-03-21 02:30:00,16.0,12.3,29.98,West,274,3.0,3.0,85,0.00,,---,0.00,VWS V14.01,2013-03-21 07:30:00,
2013-03-21 02:35:00,16.0,12.3,29.98,West,281,2.0,5.0,85,0.00,,---,0.00,VWS V14.01,2013-03-21 07:35:00,
2013-03-21 02:40:00,16.0,12.3,29.98,West,281,3.0,6.0,85,0.00,,---,0.00,VWS V14.01,2013-03-21 07:40:00,
2013-03-21 02:45:00,15.9,12.5,29.98,WNW,284,3.0,6.0,86,0.00,,---,0.00,VWS V14.01,2013-03-21 07:45:00,
2013-03-21 02:50:00,15.9,12.5,29.98,West,277,2.0,6.0,86,0.00,,---,0.00,VWS V14.01,2013-03-21 07:50:00,
2013-03-21 02:55:00,15.9,12.5,29.98,West,271,1.0,6.0,86,0.00,,---,0.00,VWS V14.01,2013-03-21 07:55:00,
2013-03-21 03:00:00,15.8,12.4,29.98,WNW,284,2.0,3.0,86,0.00,,---,0.00,VWS V14.01,2013-03-21 08:00:00,
2013-03-21 03:05:00,15.7,12.3,29.98,West,267,0.0,4.0,86,0.00,,---,0.00,VWS V14.01,2013-03-21 08:05:00,
2013-03-21 03:10:00,15.6,12.2,29.98,WNW,287,2.0,4.0,86,0.00,,---,0.00,VWS V14.01,2013-03-21 08:10:00,
2013-03-21 03:15:00,15.6,12.4,29.97,WSW,243,3.0,4.0,87,0.00,,---,0.00,VWS V14.01,2013-03-21 08:15:00,
2013-03-21 03:20:00,15.7,12.5,29.97,West,270,3.0,4.0,87,0.00,,---,0.00,VWS V14.01,2013-03-21 08:20:00,
2013-03-21 03:25:00,15.8,12.6,29.97,WNW,283,3.0,5.0,87,0.00,,---,0.00,VWS V14.01,2013-03-21 08:25:00,
2013-03-21 03:30:00,15.8,12.6,29.97,West,275,1.0,5.0,87,0.00,,---,0.00,VWS V14.01,2013-03-21 08:30:00,
2013-03-21 03:35:00,15.8,12.6,29.97,WSW,250,1.0,6.0,87,0.00,,---,0.00,VWS V14.01,2013-03-21 08:35:00,
2013-03-21 03:40:00,15.9,12.7,29.97,West,278,2.0,6.0,87,0.00,,---,0.00,VWS V14.01,2013-03-21 08:40:00,
2013-03-21 03:45:00,15.9,12.7,29.97,WNW,283,2.0,6.0,87,0.00,,---,0.00,VWS V14.01,2013-03-21 08:45:00,
2013-03-21 03:50:00,15.9,12.7,29.97,WNW,301,5.0,6.0,87,0.00,,---,0.00,VWS V14.01,2013-03-21 08:50:00,
2013-03-21 03:55:00,15.9,12.7,29.97,West,260,4.0,6.0,87,0.00,,---,0.00,VWS V14.01,2013-03-21 08:55:00,
2013-03-21 04:00:00,15.9,12.7,29.97,West,266,1.0,3.0,87,0.00,,---,0.00,VWS V14.01,2013-03-21 09:00:00,
2013-03-21 04:05:00,15.9,12.7,29.97,WSW,256,3.0,7.0,87,0.00,,---,0.00,VWS V14.01,2013-03-21 09:05:00,
2013-03-21 04:10:00,15.8,12.6,29.97,West,281,2.0,7.0,87,0.00,,---,0.00,VWS V14.01,2013-03-21 09:10:00,
2013-03-21 04:15:00,15.9,12.7,29.96,West,275,2.0,7.0,87,0.00,,---,0.00,VWS V14.01,2013-03-21 09:15:00,
2013-03-21 04:20:00,15.9,12.7,29.96,WSW,245,1.0,7.0,87,0.00,,---,0.00,VWS V14.01,2013-03-21 09:20:00,
2013-03-21 04:25:00,16.0,12.8,29.96,West,274,2.0,7.0,87,0.00,,---,0.00,VWS V14.01,2013-03-21 09:25:00,
2013-03-21 04:30:00,16.2,13.0,29.96,West,271,4.0,5.0,87,0.00,,---,0.00,VWS V14.01,2013-03-21 09:30:00,
2013-03-21 04:35:00,16.3,13.1,29.96,WSW,249,1.0,7.0,87,0.00,,---,0.00,VWS V14.01,2013-03-21 09:35:00,
2013-03-21 04:40:00,16.4,13.2,29.96,West,273,5.0,8.0,87,0.00,,---,0.00,VWS V14.01,2013-03-21 09:40:00,
2013-03-21 04:45:00,16.6,13.4,29.96,WNW,292,4.0,8.0,87,0.00,,---,0.00,VWS V14.01,2013-03-21 09:45:00,
2013-03-21 04:50:00,16.6,13.4,29.96,WNW,291,2.0,8.0,87,0.00,,---,0.00,VWS V14.01,2013-03-21 09:50:00,
2013-03-21 04:55:00,16.7,13.5,29.96,West,274,5.0,8.0,87,0.00,,---,0.00,VWS V14.01,2013-03-21 09:55:00,
2013-03-21 05:00:00,16.8,13.6,29.96,West,263,1.0,7.0,87,0.00,,---,0.00,VWS V14.01,2013-03-21 10:00:00,
2013-03-21 05:05:00,17.0,13.8,29.96,WSW,246,4.0,8.0,87,0.00,,---,0.00,VWS V14.01,2013-03-21 10:05:00,
2013-03-21 05:10:00,17.1,13.9,29.96,West,259,4.0,8.0,87,0.00,,---,0.00,VWS V14.01,2013-03-21 10:10:00,
2013-03-21 05:15:00,17.3,13.8,29.96,WNW,287,4.0,8.0,86,0.00,,---,0.00,VWS V14.01,2013-03-21 10:15:00,
2013-03-21 05:20:00,17.4,13.9,29.96,West,273,4.0,8.0,86,0.00,,---,0.00,VWS V14.01,2013-03-21 10:20:00,
2013-03-21 05:25:00,17.5,14.0,29.95,West,269,2.0,8.0,86,0.00,,---,0.00,VWS V14.01,2013-03-21 10:25:00,
2013-03-21 05:30:00,17.6,14.1,29.96,West,259,4.0,7.0,86,0.00,,---,0.00,VWS V14.01,2013-03-21 10:30:00,
2013-03-21 05:35:00,17.8,14.3,29.95,West,259,6.0,9.0,86,0.00,,---,0.00,VWS V14.01,2013-03-21 10:35:00,
2013-03-21 05:40:00,17.9,14.4,29.96,West,281,3.0,9.0,86,0.00,,---,0.00,VWS V14.01,2013-03-21 10:40:00,
2013-03-21 05:45:00,17.9,14.2,29.95,SW,233,3.0,9.0,85,0.00,,---,0.00,VWS V14.01,2013-03-21 10:45:00,
2013-03-21 05:50:00,18.0,14.3,29.95,West,270,3.0,9.0,85,0.00,,---,0.00,VWS V14.01,2013-03-21 10:50:00,
2013-03-21 05:55:00,18.1,14.4,29.95,West,280,3.0,9.0,85,0.00,,---,0.00,VWS V14.01,2013-03-21 10:55:00,
2013-03-21 06:00:00,18.1,14.4,29.95,WSW,249,2.0,5.0,85,0.00,,---,0.00,VWS V14.01,2013-03-21 11:00:00,
2013-03-21 06:05:00,18.2,14.2,29.95,West,269,2.0,10.0,84,0.00,,---,0.00,VWS V14.01,2013-03-21 11:05:00,
2013-03-21 06:10:00,18.2,14.2,29.95,WNW,283,6.0,10.0,84,0.00,,---,0.00,VWS V14.01,2013-03-21 11:10:00,
2013-03-21 06:15:00,18.3,14.3,29.95,WNW,283,6.0,10.0,84,0.00,,---,0.00,VWS V14.01,2013-03-21 11:15:00,
2013-03-21 06:20:00,18.4,14.4,29.95,WNW,285,4.0,10.0,84,0.00,,---,0.00,VWS V14.01,2013-03-21 11:20:00,
2013-03-21 06:25:00,18.4,14.6,29.95,WSW,255,6.0,10.0,85,0.00,,---,0.00,VWS V14.01,2013-03-21 11:25:00,
2013-03-21 06:30:00,18.5,14.8,29.95,WNW,283,4.0,4.0,85,0.00,,---,0.00,VWS V14.01,2013-03-21 11:30:00,
2013-03-21 06:35:00,18.3,14.3,29.95,West,278,3.0,8.0,84,0.00,,---,0.00,VWS V14.01,2013-03-21 11:35:00,
2013-03-21 06:40:00,18.2,14.2,29.95,West,266,4.0,8.0,84,0.00,,---,0.00,VWS V14.01,2013-03-21 11:40:00,
2013-03-21 06:45:00,18.2,14.5,29.95,West,271,3.0,8.0,85,0.00,,---,0.00,VWS V14.01,2013-03-21 11:45:00,
2013-03-21 06:50:00,18.1,14.4,29.95,WSW,253,1.0,8.0,85,0.00,,---,0.00,VWS V14.01,2013-03-21 11:50:00,
2013-03-21 06:55:00,18.1,14.4,29.95,West,274,4.0,11.0,85,0.00,,---,0.00,VWS V14.01,2013-03-21 11:55:00,
2013-03-21 07:00:00,18.1,14.4,29.95,SW,219,2.0,7.0,85,0.00,,---,0.00,VWS V14.01,2013-03-21 12:00:00,
2013-03-21 07:05:00,18.1,14.4,29.95,West,260,3.0,7.0,85,0.00,,---,0.00,VWS V14.01,2013-03-21 12:05:00,
2013-03-21 07:10:00,18.2,14.5,29.96,WSW,255,3.0,8.0,85,0.00,,---,0.00,VWS V14.01,2013-03-21 12:10:00,
2013-03-21 07:15:00,18.3,14.6,29.96,WNW,290,3.0,8.0,85,0.00,,---,0.00,VWS V14.01,2013-03-21 12:15:00,
2013-03-21 07:20:00,18.5,14.8,29.96,West,280,5.0,8.0,85,0.00,,---,0.00,VWS V14.01,2013-03-21 12:20:00,
2013-03-21 07:25:00,18.6,14.9,29.96,SW,215,3.0,8.0,85,0.00,,---,0.00,VWS V14.01,2013-03-21 12:25:00,
2013-03-21 07:30:00,18.9,14.9,29.96,West,271,3.0,4.0,84,0.00,,---,0.00,VWS V14.01,2013-03-21 12:30:00,
2013-03-21 07:35:00,19.1,15.1,29.96,West,274,7.0,10.0,84,0.00,,---,0.00,VWS V14.01,2013-03-21 12:35:00,
2013-03-21 07:40:00,19.5,15.5,29.96,West,270,3.0,10.0,84,0.00,,---,0.00,VWS V14.01,2013-03-21 12:40:00,
2013-03-21 07:45:00,19.7,15.4,29.96,West,262,3.0,10.0,83,0.00,,---,0.00,VWS V14.01,2013-03-21 12:45:00,
2013-03-21 07:50:00,19.9,15.3,29.96,WSW,246,3.0,12.0,82,0.00,,---,0.00,VWS V14.01,2013-03-21 12:50:00,
2013-03-21 07:55:00,20.1,15.5,29.96,West,281,1.0,12.0,82,0.00,,---,0.00,VWS V14.01,2013-03-21 12:55:00,
2013-03-21 08:00:00,20.5,15.9,29.96,WSW,253,3.0,13.0,82,0.00,,---,0.00,VWS V14.01,2013-03-21 13:00:00,
2013-03-21 08:05:00,20.6,16.0,29.96,West,271,5.0,13.0,82,0.00,,---,0.00,VWS V14.01,2013-03-21 13:05:00,
2013-03-21 08:10:00,20.5,15.9,29.96,West,267,3.0,13.0,82,0.00,,---,0.00,VWS V14.01,2013-03-21 13:10:00,
2013-03-21 08:15:00,20.6,16.0,29.96,West,265,4.0,13.0,82,0.00,,---,0.00,VWS V14.01,2013-03-21 13:15:00,
2013-03-21 08:20:00,20.6,16.3,29.96,West,278,5.0,13.0,83,0.00,,---,0.00,VWS V14.01,2013-03-21 13:20:00,
2013-03-21 08:25:00,20.8,16.5,29.96,WSW,243,7.0,13.0,83,0.00,,---,0.00,VWS V14.01,2013-03-21 13:25:00,
2013-03-21 08:30:00,21.3,17.0,29.96,SW,231,5.0,9.0,83,0.00,,---,0.00,VWS V14.01,2013-03-21 13:30:00,
2013-03-21 08:35:00,21.5,16.9,29.96,WNW,293,6.0,12.0,82,0.00,,---,0.00,VWS V14.01,2013-03-21 13:35:00,
2013-03-21 08:40:00,21.9,17.5,29.96,West,273,5.0,12.0,83,0.00,,---,0.00,VWS V14.01,2013-03-21 13:40:00,
2013-03-21 08:45:00,22.1,17.2,29.96,West,265,7.0,12.0,81,0.00,,---,0.00,VWS V14.01,2013-03-21 13:45:00,
2013-03-21 08:50:00,22.5,17.9,29.95,West,270,4.0,12.0,82,0.00,,---,0.00,VWS V14.01,2013-03-21 13:50:00,
2013-03-21 08:55:00,23.0,18.3,29.95,West,271,7.0,12.0,82,0.00,,---,0.00,VWS V14.01,2013-03-21 13:55:00,
2013-03-21 09:00:00,23.5,18.2,29.95,WNW,283,2.0,6.0,80,0.00,,---,0.00,VWS V14.01,2013-03-21 14:00:00,
2013-03-21 09:05:00,23.8,18.2,29.96,West,273,3.0,11.0,79,0.00,,---,0.00,VWS V14.01,2013-03-21 14:05:00,
2013-03-21 09:10:00,23.4,17.6,29.96,WSW,239,5.0,14.0,78,0.00,,---,0.00,VWS V14.01,2013-03-21 14:10:00,
2013-03-21 09:15:00,23.2,17.7,29.96,WSW,249,6.0,14.0,79,0.00,,---,0.00,VWS V14.01,2013-03-21 14:15:00,
2013-03-21 09:20:00,23.5,18.2,29.96,WSW,257,4.0,14.0,80,0.00,,---,0.00,VWS V14.01,2013-03-21 14:20:00,
2013-03-21 09:25:00,24.2,18.9,29.96,West,281,7.0,14.0,80,0.00,,---,0.00,VWS V14.01,2013-03-21 14:25:00,
2013-03-21 09:30:00,24.5,19.2,29.96,WSW,240,7.0,9.0,80,0.00,,---,0.00,VWS V14.01,2013-03-21 14:30:00,
2013-03-21 09:35:00,25.1,19.2,29.96,West,274,6.0,9.0,78,0.00,,---,0.00,VWS V14.01,2013-03-21 14:35:00,
2013-03-21 09:40:00,25.0,18.8,29.96,West,264,7.0,10.0,77,0.00,,---,0.00,VWS V14.01,2013-03-21 14:40:00,
2013-03-21 09:45:00,24.8,18.6,29.96,WNW,287,9.0,13.0,77,0.00,,---,0.00,VWS V14.01,2013-03-21 14:45:00,
2013-03-21 09:50:00,24.7,18.8,29.96,West,280,8.0,13.0,78,0.00,,---,0.00,VWS V14.01,2013-03-21 14:50:00,
2013-03-21 09:55:00,24.6,18.7,29.96,WNW,288,8.0,15.0,78,0.00,,---,0.00,VWS V14.01,2013-03-21 14:55:00,
2013-03-21 10:00:00,24.6,18.4,29.96,WNW,283,4.0,12.0,77,0.00,,---,0.00,VWS V14.01,2013-03-21 15:00:00,
2013-03-21 10:05:00,24.8,18.9,29.96,WNW,293,7.0,12.0,78,0.00,,---,0.00,VWS V14.01,2013-03-21 15:05:00,
2013-03-21 10:10:00,25.0,18.8,29.96,West,266,5.0,12.0,77,0.00,,---,0.00,VWS V14.01,2013-03-21 15:10:00,
2013-03-21 10:15:00,24.8,18.6,29.96,West,281,6.0,14.0,77,0.00,,---,0.00,VWS V14.01,2013-03-21 15:15:00,
2013-03-21 10:20:00,25.0,18.8,29.96,WNW,294,6.0,14.0,77,0.00,,---,0.00,VWS V14.01,2013-03-21 15:20:00,
2013-03-21 10:25:00,25.2,19.0,29.96,WNW,298,7.0,14.0,77,0.00,,---,0.00,VWS V14.01,2013-03-21 15:25:00,
2013-03-21 10:30:00,25.5,19.3,29.96,WNW,283,7.0,8.0,77,0.00,,---,0.00,VWS V14.01,2013-03-21 15:30:00,
2013-03-21 10:35:00,25.5,19.0,29.97,WNW,300,3.0,11.0,76,0.00,,---,0.00,VWS V14.01,2013-03-21 15:35:00,
2013-03-21 10:40:00,25.7,19.5,29.97,WSW,243,3.0,14.0,77,0.00,,---,0.00,VWS V14.01,2013-03-21 15:40:00,
2013-03-21 10:45:00,26.2,19.7,29.97,NW,320,6.0,14.0,76,0.00,,---,0.00,VWS V14.01,2013-03-21 15:45:00,
2013-03-21 10:50:00,26.4,19.6,29.97,WSW,257,7.0,14.0,75,0.00,,---,0.00,VWS V14.01,2013-03-21 15:50:00,
2013-03-21 10:55:00,26.5,20.0,29.97,WNW,293,5.0,14.0,76,0.00,,---,0.00,VWS V14.01,2013-03-21 15:55:00,
2013-03-21 11:00:00,26.7,20.2,29.97,WNW,294,6.0,12.0,76,0.00,,---,0.00,VWS V14.01,2013-03-21 16:00:00,
2013-03-21 11:05:00,26.9,20.0,29.97,WSW,257,9.0,12.0,75,0.00,,---,0.00,VWS V14.01,2013-03-21 16:05:00,
2013-03-21 11:10:00,26.9,20.0,29.97,NE,36,5.0,12.0,75,0.00,,---,0.00,VWS V14.01,2013-03-21 16:10:00,
2013-03-21 11:15:00,27.7,20.8,29.97,WNW,284,4.0,12.0,75,0.00,,---,0.00,VWS V14.01,2013-03-21 16:15:00,
2013-03-21 11:20:00,28.2,20.7,29.97,West,261,7.0,12.0,73,0.00,,---,0.00,VWS V14.01,2013-03-21 16:20:00,
2013-03-21 11:25:00,28.4,20.5,29.97,West,269,7.0,12.0,72,0.00,,---,0.00,VWS V14.01,2013-03-21 16:25:00,
2013-03-21 11:30:00,28.9,20.7,29.97,WSW,252,8.0,10.0,71,0.00,,---,0.00,VWS V14.01,2013-03-21 16:30:00,
2013-03-21 11:35:00,28.9,20.7,29.97,West,266,3.0,10.0,71,0.00,,---,0.00,VWS V14.01,2013-03-21 16:35:00,
2013-03-21 11:40:00,28.7,20.2,29.97,WNW,289,8.0,11.0,70,0.00,,---,0.00,VWS V14.01,2013-03-21 16:40:00,
2013-03-21 11:45:00,28.6,20.4,29.97,WNW,288,7.0,12.0,71,0.00,,---,0.00,VWS V14.01,2013-03-21 16:45:00,
2013-03-21 11:50:00,28.8,20.6,29.97,West,278,3.0,12.0,71,0.00,,---,0.00,VWS V14.01,2013-03-21 16:50:00,
2013-03-21 11:55:00,29.3,20.7,29.97,West,259,12.0,12.0,70,0.00,,---,0.00,VWS V14.01,2013-03-21 16:55:00,
2013-03-21 12:00:00,29.8,21.2,29.97,West,267,6.0,8.0,70,0.00,,---,0.00,VWS V14.01,2013-03-21 17:00:00,
2013-03-21 12:05:00,29.7,20.8,29.97,West,278,7.0,13.0,69,0.00,,---,0.00,VWS V14.01,2013-03-21 17:05:00,
2013-03-21 12:10:00,29.6,21.0,29.97,WNW,283,10.0,13.0,70,0.00,,---,0.00,VWS V14.01,2013-03-21 17:10:00,
2013-03-21 12:15:00,30.1,21.2,29.97,West,276,12.0,13.0,69,0.00,,---,0.00,VWS V14.01,2013-03-21 17:15:00,
2013-03-21 12:20:00,30.1,20.8,29.97,WNW,283,3.0,14.0,68,0.00,,---,0.00,VWS V14.01,2013-03-21 17:20:00,
2013-03-21 12:25:00,30.2,20.9,29.97,West,269,9.0,14.0,68,0.00,,---,0.00,VWS V14.01,2013-03-21 17:25:00,
2013-03-21 12:30:00,30.3,21.0,29.97,NW,314,4.0,10.0,68,0.00,,---,0.00,VWS V14.01,2013-03-21 17:30:00,
2013-03-21 12:35:00,30.6,21.0,29.97,SW,214,3.0,11.0,67,0.00,,---,0.00,VWS V14.01,2013-03-21 17:35:00,
2013-03-21 12:40:00,30.6,21.0,29.96,WNW,293,5.0,15.0,67,0.00,,---,0.00,VWS V14.01,2013-03-21 17:40:00,
2013-03-21 12:45:00,31.2,21.2,29.96,West,269,4.0,15.0,66,0.00,,---,0.00,VWS V14.01,2013-03-21 17:45:00,
2013-03-21 12:50:00,31.9,21.9,29.96,North,10,8.0,15.0,66,0.00,,---,0.00,VWS V14.01,2013-03-21 17:50:00,
2013-03-21 12:55:00,32.6,21.8,29.96,WNW,293,6.0,15.0,64,0.00,,---,0.00,VWS V14.01,2013-03-21 17:55:00,
2013-03-21 13:00:00,32.5,20.9,29.96,NW,305,4.0,9.0,62,0.00,,---,0.00,VWS V14.01,2013-03-21 18:00:00,
2013-03-21 13:05:00,31.6,20.1,29.96,West,263,6.0,15.0,62,0.00,,---,0.00,VWS V14.01,2013-03-21 18:05:00,
2013-03-21 13:10:00,31.1,20.0,29.96,NW,307,5.0,15.0,63,0.00,,---,0.00,VWS V14.01,2013-03-21 18:10:00,
2013-03-21 13:15:00,30.7,20.0,29.96,WNW,283,10.0,17.0,64,0.00,,---,0.00,VWS V14.01,2013-03-21 18:15:00,
2013-03-21 13:20:00,30.6,20.2,29.96,West,276,4.0,17.0,65,0.00,,---,0.00,VWS V14.01,2013-03-21 18:20:00,
2013-03-21 13:25:00,30.6,20.2,29.96,NW,307,4.0,17.0,65,0.00,,---,0.00,VWS V14.01,2013-03-21 18:25:00,
2013-03-21 13:30:00,30.7,20.3,29.95,WNW,297,7.0,14.0,65,0.00,,---,0.00,VWS V14.01,2013-03-21 18:30:00,
2013-03-21 13:35:00,30.7,20.3,29.96,West,280,7.0,14.0,65,0.00,,---,0.00,VWS V14.01,2013-03-21 18:35:00,
2013-03-21 13:40:00,30.7,20.0,29.96,WNW,283,9.0,18.0,64,0.00,,---,0.00,VWS V14.01,2013-03-21 18:40:00,
2013-03-21 13:45:00,30.5,19.8,29.96,SW,236,12.0,18.0,64,0.00,,---,0.00,VWS V14.01,2013-03-21 18:45:00,
2013-03-21 13:50:00,30.7,20.0,29.96,West,260,12.0,18.0,64,0.00,,---,0.00,VWS V14.01,2013-03-21 18:50:00,
2013-03-21 13:55:00,30.7,20.0,29.96,West,276,6.0,18.0,64,0.00,,---,0.00,VWS V14.01,2013-03-21 18:55:00,
2013-03-21 14:00:00,30.4,20.1,29.96,WNW,289,6.0,12.0,65,0.00,,---,0.00,VWS V14.01,2013-03-21 19:00:00,
2013-03-21 14:05:00,30.4,20.4,29.96,WSW,246,6.0,13.0,66,0.00,,---,0.00,VWS V14.01,2013-03-21 19:05:00,
2013-03-21 14:10:00,30.2,20.2,29.96,WSW,255,10.0,14.0,66,0.00,,---,0.00,VWS V14.01,2013-03-21 19:10:00,
2013-03-21 14:15:00,30.2,20.6,29.96,West,259,2.0,15.0,67,0.00,,---,0.00,VWS V14.01,2013-03-21 19:15:00,
2013-03-21 14:20:00,30.2,20.6,29.96,WNW,293,10.0,15.0,67,0.00,,---,0.00,VWS V14.01,2013-03-21 19:20:00,
2013-03-21 14:25:00,30.1,20.8,29.96,WNW,299,14.0,15.0,68,0.00,,---,0.00,VWS V14.01,2013-03-21 19:25:00,
2013-03-21 14:30:00,30.0,20.4,29.96,West,277,5.0,9.0,67,0.00,,---,0.00,VWS V14.01,2013-03-21 19:30:00,
2013-03-21 14:35:00,30.3,20.3,29.96,West,271,5.0,13.0,66,0.00,,---,0.00,VWS V14.01,2013-03-21 19:35:00,
2013-03-21 14:40:00,30.6,20.2,29.96,West,264,6.0,13.0,65,0.00,,---,0.00,VWS V14.01,2013-03-21 19:40:00,
2013-03-21 14:45:00,30.8,20.8,29.96,West,281,6.0,13.0,66,0.00,,---,0.00,VWS V14.01,2013-03-21 19:45:00,
2013-03-21 14:50:00,30.9,20.9,29.96,West,277,8.0,13.0,66,0.00,,---,0.00,VWS V14.01,2013-03-21 19:50:00,
2013-03-21 14:55:00,30.9,20.5,29.96,WSW,239,9.0,13.0,65,0.00,,---,0.00,VWS V14.01,2013-03-21 19:55:00,
2013-03-21 15:00:00,31.0,20.6,29.96,West,259,13.0,13.0,65,0.00,,---,0.00,VWS V14.01,2013-03-21 20:00:00,
2013-03-21 15:05:00,31.1,20.7,29.96,West,279,3.0,13.0,65,0.00,,---,0.00,VWS V14.01,2013-03-21 20:05:00,
2013-03-21 15:10:00,31.1,20.0,29.96,SSW,202,5.0,13.0,63,0.00,,---,0.00,VWS V14.01,2013-03-21 20:10:00,
2013-03-21 15:15:00,31.1,20.0,29.96,WSW,238,3.0,13.0,63,0.00,,---,0.00,VWS V14.01,2013-03-21 20:15:00,
2013-03-21 15:20:00,31.2,19.7,29.96,WNW,283,4.0,14.0,62,0.00,,---,0.00,VWS V14.01,2013-03-21 20:20:00,
2013-03-21 15:25:00,31.0,19.5,29.96,WNW,287,4.0,14.0,62,0.00,,---,0.00,VWS V14.01,2013-03-21 20:25:00,
2013-03-21 15:30:00,31.0,19.9,29.96,WSW,253,7.0,12.0,63,0.00,,---,0.00,VWS V14.01,2013-03-21 20:30:00,
2013-03-21 15:35:00,31.2,20.1,29.96,NW,311,8.0,12.0,63,0.00,,---,0.00,VWS V14.01,2013-03-21 20:35:00,
2013-03-21 15:40:00,31.2,20.1,29.96,NW,320,5.0,12.0,63,0.00,,---,0.00,VWS V14.01,2013-03-21 20:40:00,
2013-03-21 15:45:00,31.3,20.5,29.96,WNW,284,3.0,12.0,64,0.00,,---,0.00,VWS V14.01,2013-03-21 20:45:00,
2013-03-21 15:50:00,31.3,20.5,29.96,West,259,4.0,13.0,64,0.00,,---,0.00,VWS V14.01,2013-03-21 20:50:00,
2013-03-21 15:55:00,31.2,20.8,29.96,WNW,285,13.0,13.0,65,0.00,,---,0.00,VWS V14.01,2013-03-21 20:55:00,
2013-03-21 16:00:00,31.2,21.2,29.96,West,277,9.0,9.0,66,0.00,,---,0.00,VWS V14.01,2013-03-21 21:00:00,
2013-03-21 16:05:00,30.9,21.6,29.96,West,267,9.0,13.0,68,0.00,,---,0.00,VWS V14.01,2013-03-21 21:05:00,
2013-03-21 16:10:00,30.8,21.5,29.96,West,271,4.0,13.0,68,0.00,,---,0.00,VWS V14.01,2013-03-21 21:10:00,
2013-03-21 16:15:00,30.8,21.9,29.96,WNW,297,10.0,13.0,69,0.00,,---,0.00,VWS V14.01,2013-03-21 21:15:00,
2013-03-21 16:20:00,30.9,21.9,29.96,West,266,3.0,13.0,69,0.00,,---,0.00,VWS V14.01,2013-03-21 21:20:00,
2013-03-21 16:25:00,30.9,21.6,29.96,SW,220,7.0,13.0,68,0.00,,---,0.00,VWS V14.01,2013-03-21 21:25:00,
2013-03-21 16:30:00,30.7,21.4,29.96,NNW,330,8.0,10.0,68,0.00,,---,0.00,VWS V14.01,2013-03-21 21:30:00,
2013-03-21 16:35:00,30.7,21.8,29.96,West,266,5.0,13.0,69,0.00,,---,0.00,VWS V14.01,2013-03-21 21:35:00,
2013-03-21 16:40:00,30.5,22.2,29.96,West,260,4.0,13.0,71,0.00,,---,0.00,VWS V14.01,2013-03-21 21:40:00,
2013-03-21 16:45:00,30.6,22.7,29.96,West,269,7.0,13.0,72,0.00,,---,0.00,VWS V14.01,2013-03-21 21:45:00,
2013-03-21 16:50:00,30.8,22.5,29.96,WNW,283,5.0,13.0,71,0.00,,---,0.00,VWS V14.01,2013-03-21 21:50:00,
2013-03-21 16:55:00,30.9,22.3,29.96,NW,307,12.0,13.0,70,0.00,,---,0.00,VWS V14.01,2013-03-21 21:55:00,
2013-03-21 17:00:00,30.8,22.9,29.96,West,281,10.0,15.0,72,0.00,,---,0.00,VWS V14.01,2013-03-21 22:00:00,
2013-03-21 17:05:00,30.6,22.7,29.96,West,278,5.0,15.0,72,0.00,,---,0.00,VWS V14.01,2013-03-21 22:05:00,
2013-03-21 17:10:00,30.5,22.6,29.96,West,263,7.0,15.0,72,0.00,,---,0.00,VWS V14.01,2013-03-21 22:10:00,
2013-03-21 17:15:00,30.5,22.9,29.96,WNW,297,5.0,15.0,73,0.00,,---,0.00,VWS V14.01,2013-03-21 22:15:00,
2013-03-21 17:20:00,30.5,23.2,29.96,West,269,2.0,15.0,74,0.00,,---,0.00,VWS V14.01,2013-03-21 22:20:00,
2013-03-21 17:25:00,30.3,23.0,29.96,West,281,8.0,15.0,74,0.00,,---,0.00,VWS V14.01,2013-03-21 22:25:00,
2013-03-21 17:30:00,30.1,22.8,29.96,WNW,283,10.0,13.0,74,0.00,,---,0.00,VWS V14.01,2013-03-21 22:30:00,
2013-03-21 17:35:00,30.0,23.0,29.97,WSW,253,4.0,15.0,75,0.00,,---,0.00,VWS V14.01,2013-03-21 22:35:00,
2013-03-21 17:40:00,29.8,22.9,29.97,NW,315,8.0,15.0,75,0.00,,---,0.00,VWS V14.01,2013-03-21 22:40:00,
2013-03-21 17:45:00,29.7,22.8,29.97,WSW,248,5.0,15.0,75,0.00,,---,0.00,VWS V14.01,2013-03-21 22:45:00,
2013-03-21 17:50:00,29.5,22.9,29.97,West,281,12.0,15.0,76,0.00,,---,0.00,VWS V14.01,2013-03-21 22:50:00,
2013-03-21 17:55:00,29.3,23.0,29.97,WNW,283,5.0,15.0,77,0.00,,---,0.00,VWS V14.01,2013-03-21 22:55:00,
2013-03-21 18:00:00,29.2,22.9,29.97,WSW,256,4.0,10.0,77,0.00,,---,0.00,VWS V14.01,2013-03-21 23:00:00,
2013-03-21 18:05:00,29.0,22.7,29.97,NW,323,6.0,14.0,77,0.00,,---,0.00,VWS V14.01,2013-03-21 23:05:00,
2013-03-21 18:10:00,29.1,22.8,29.97,West,270,4.0,15.0,77,0.00,,---,0.00,VWS V14.01,2013-03-21 23:10:00,
2013-03-21 18:15:00,29.1,22.5,29.97,WNW,283,5.0,15.0,76,0.00,,---,0.00,VWS V14.01,2013-03-21 23:15:00,
2013-03-21 18:20:00,29.2,22.6,29.97,WSW,256,14.0,19.0,76,0.00,,---,0.00,VWS V14.01,2013-03-21 23:20:00,
2013-03-21 18:25:00,29.1,22.5,29.97,WSW,243,5.0,19.0,76,0.00,,---,0.00,VWS V14.01,2013-03-21 23:25:00,
2013-03-21 18:30:00,29.0,22.4,29.98,West,267,11.0,12.0,76,0.00,,---,0.00,VWS V14.01,2013-03-21 23:30:00,
2013-03-21 18:35:00,29.0,22.4,29.98,WNW,291,5.0,13.0,76,0.00,,---,0.00,VWS V14.01,2013-03-21 23:35:00,
2013-03-21 18:40:00,28.9,22.6,29.98,WSW,246,6.0,14.0,77,0.00,,---,0.00,VWS V14.01,2013-03-21 23:40:00,
2013-03-21 18:45:00,28.8,22.5,29.98,West,281,8.0,14.0,77,0.00,,---,0.00,VWS V14.01,2013-03-21 23:45:00,
2013-03-21 18:50:00,28.8,22.5,29.98,WNW,297,6.0,14.0,77,0.00,,---,0.00,VWS V14.01,2013-03-21 23:50:00,
2013-03-21 18:55:00,28.7,22.4,29.98,WNW,293,11.0,14.0,77,0.00,,---,0.00,VWS V14.01,2013-03-21 23:55:00,
2013-03-21 19:00:00,28.6,22.3,29.98,WSW,248,3.0,8.0,77,0.00,,---,0.00,VWS V14.01,2013-03-22 00:00:00,
2013-03-21 19:05:00,28.6,22.3,29.98,West,276,6.0,12.0,77,0.00,,---,0.00,VWS V14.01,2013-03-22 00:05:00,
2013-03-21 19:10:00,28.7,22.4,29.98,WNW,297,3.0,12.0,77,0.00,,---,0.00,VWS V14.01,2013-03-22 00:10:00,
2013-03-21 19:15:00,28.6,22.0,29.98,West,265,6.0,12.0,76,0.00,,---,0.00,VWS V14.01,2013-03-22 00:15:00,
2013-03-21 19:20:00,28.6,22.0,29.98,WNW,302,5.0,12.0,76,0.00,,---,0.00,VWS V14.01,2013-03-22 00:20:00,
2013-03-21 19:25:00,28.6,22.0,29.98,West,264,5.0,13.0,76,0.00,,---,0.00,VWS V14.01,2013-03-22 00:25:00,
2013-03-21 19:30:00,28.6,22.0,29.98,West,281,5.0,8.0,76,0.00,,---,0.00,VWS V14.01,2013-03-22 00:30:00,
2013-03-21 19:35:00,28.5,21.9,29.98,West,259,8.0,11.0,76,0.00,,---,0.00,VWS V14.01,2013-03-22 00:35:00,
2013-03-21 19:40:00,28.5,21.6,29.98,West,278,9.0,13.0,75,0.00,,---,0.00,VWS V14.01,2013-03-22 00:40:00,
2013-03-21 19:45:00,28.5,21.6,29.98,WSW,243,7.0,13.0,75,0.00,,---,0.00,VWS V14.01,2013-03-22 00:45:00,
2013-03-21 19:50:00,28.5,21.6,29.98,West,273,5.0,13.0,75,0.00,,---,0.00,VWS V14.01,2013-03-22 00:50:00,
2013-03-21 19:55:00,28.5,21.6,29.98,West,273,5.0,13.0,75,0.00,,---,0.00,VWS V14.01,2013-03-22 00:55:00,
2013-03-21 20:00:00,28.5,21.6,29.99,WSW,248,5.0,8.0,75,0.00,,---,0.00,VWS V14.01,2013-03-22 01:00:00,
2013-03-21 20:05:00,28.5,21.6,29.99,West,278,3.0,8.0,75,0.00,,---,0.00,VWS V14.01,2013-03-22 01:05:00,
2013-03-21 20:10:00,28.4,21.5,29.99,West,276,7.0,11.0,75,0.00,,---,0.00,VWS V14.01,2013-03-22 01:10:00,
2013-03-21 20:15:00,28.4,21.5,29.99,West,277,8.0,11.0,75,0.00,,---,0.00,VWS V14.01,2013-03-22 01:15:00,
2013-03-21 20:20:00,28.3,21.4,29.99,WNW,284,4.0,11.0,75,0.00,,---,0.00,VWS V14.01,2013-03-22 01:20:00,
2013-03-21 20:25:00,28.3,21.4,29.99,WNW,287,9.0,11.0,75,0.00,,---,0.00,VWS V14.01,2013-03-22 01:25:00,
2013-03-21 20:30:00,28.2,21.3,29.99,West,276,4.0,11.0,75,0.00,,---,0.00,VWS V14.01,2013-03-22 01:30:00,
2013-03-21 20:35:00,28.2,21.0,29.99,West,281,3.0,11.0,74,0.00,,---,0.00,VWS V14.01,2013-03-22 01:35:00,
2013-03-21 20:40:00,28.2,21.0,29.99,WSW,238,2.0,11.0,74,0.00,,---,0.00,VWS V14.01,2013-03-22 01:40:00,
2013-03-21 20:45:00,28.2,20.7,29.99,West,269,6.0,11.0,73,0.00,,---,0.00,VWS V14.01,2013-03-22 01:45:00,
2013-03-21 20:50:00,28.2,20.7,29.99,West,273,6.0,15.0,73,0.00,,---,0.00,VWS V14.01,2013-03-22 01:50:00,
2013-03-21 20:55:00,28.2,20.7,29.99,West,273,8.0,15.0,73,0.00,,---,0.00,VWS V14.01,2013-03-22 01:55:00,
2013-03-21 21:00:00,28.1,20.2,29.99,NW,313,8.0,14.0,72,0.00,,---,0.00,VWS V14.01,2013-03-22 02:00:00,
2013-03-21 21:05:00,28.1,20.2,29.99,WSW,247,12.0,14.0,72,0.00,,---,0.00,VWS V14.01,2013-03-22 02:05:00,
2013-03-21 21:10:00,28.0,20.2,29.99,West,280,5.0,14.0,72,0.00,,---,0.00,VWS V14.01,2013-03-22 02:10:00,
2013-03-21 21:15:00,28.0,19.8,29.99,WSW,245,6.0,14.0,71,0.00,,---,0.00,VWS V14.01,2013-03-22 02:15:00,
2013-03-21 21:20:00,27.9,19.7,29.99,WNW,289,6.0,14.0,71,0.00,,---,0.00,VWS V14.01,2013-03-22 02:20:00,
2013-03-21 21:25:00,28.0,19.8,30.00,NW,307,10.0,14.0,71,0.00,,---,0.00,VWS V14.01,2013-03-22 02:25:00,
2013-03-21 21:30:00,28.0,19.8,30.00,West,281,9.0,11.0,71,0.00,,---,0.00,VWS V14.01,2013-03-22 02:30:00,
2013-03-21 21:35:00,27.9,19.7,30.00,WNW,285,6.0,13.0,71,0.00,,---,0.00,VWS V14.01,2013-03-22 02:35:00,
2013-03-21 21:40:00,27.9,19.7,30.00,West,273,2.0,13.0,71,0.00,,---,0.00,VWS V14.01,2013-03-22 02:40:00,
2013-03-21 21:45:00,27.9,19.7,30.00,West,269,4.0,13.0,71,0.00,,---,0.00,VWS V14.01,2013-03-22 02:45:00,
2013-03-21 21:50:00,27.8,19.6,30.00,WNW,290,3.0,13.0,71,0.00,,---,0.00,VWS V14.01,2013-03-22 02:50:00,
2013-03-21 21:55:00,27.8,20.0,30.00,West,262,5.0,13.0,72,0.00,,---,0.00,VWS V14.01,2013-03-22 02:55:00,
2013-03-21 22:00:00,27.8,20.0,30.00,WNW,287,6.0,8.0,72,0.00,,---,0.00,VWS V14.01,2013-03-22 03:00:00,
2013-03-21 22:05:00,27.7,19.9,30.00,West,278,5.0,11.0,72,0.00,,---,0.00,VWS V14.01,2013-03-22 03:05:00,
2013-03-21 22:10:00,27.7,19.9,30.00,WNW,283,6.0,12.0,72,0.00,,---,0.00,VWS V14.01,2013-03-22 03:10:00,
2013-03-21 22:15:00,27.6,19.8,30.00,SW,233,6.0,12.0,72,0.00,,---,0.00,VWS V14.01,2013-03-22 03:15:00,
2013-03-21 22:20:00,27.5,19.4,30.00,West,266,3.0,12.0,71,0.00,,---,0.00,VWS V14.01,2013-03-22 03:20:00,
2013-03-21 22:25:00,27.4,18.9,30.00,WNW,285,3.0,12.0,70,0.00,,---,0.00,VWS V14.01,2013-03-22 03:25:00,
2013-03-21 22:30:00,27.3,19.1,30.00,WNW,302,7.0,7.0,71,0.00,,---,0.00,VWS V14.01,2013-03-22 03:30:00,
2013-03-21 22:35:00,27.2,19.1,30.00,West,276,2.0,11.0,71,0.00,,---,0.00,VWS V14.01,2013-03-22 03:35:00,
2013-03-21 22:40:00,27.1,19.0,30.01,WNW,289,5.0,11.0,71,0.00,,---,0.00,VWS V14.01,2013-03-22 03:40:00,
2013-03-21 22:45:00,27.0,18.9,30.00,WNW,287,3.0,11.0,71,0.00,,---,0.00,VWS V14.01,2013-03-22 03:45:00,
2013-03-21 22:50:00,27.0,19.2,30.01,WNW,287,7.0,11.0,72,0.00,,---,0.00,VWS V14.01,2013-03-22 03:50:00,
2013-03-21 22:55:00,26.9,19.1,30.01,West,269,4.0,11.0,72,0.00,,---,0.00,VWS V14.01,2013-03-22 03:55:00,
2013-03-21 23:00:00,26.9,19.1,30.01,West,274,5.0,8.0,72,0.00,,---,0.00,VWS V14.01,2013-03-22 04:00:00,
2013-03-21 23:05:00,26.9,19.1,30.01,NW,311,5.0,9.0,72,0.00,,---,0.00,VWS V14.01,2013-03-22 04:05:00,
2013-03-21 23:10:00,26.8,19.0,30.01,West,276,3.0,9.0,72,0.00,,---,0.00,VWS V14.01,2013-03-22 04:10:00,
2013-03-21 23:15:00,26.8,19.0,30.01,West,264,4.0,9.0,72,0.00,,---,0.00,VWS V14.01,2013-03-22 04:15:00,
2013-03-21 23:20:00,26.9,19.4,30.01,West,274,4.0,9.0,73,0.00,,---,0.00,VWS V14.01,2013-03-22 04:20:00,
2013-03-21 23:25:00,26.9,19.4,30.01,West,280,4.0,9.0,73,0.00,,---,0.00,VWS V14.01,2013-03-22 04:25:00,
2013-03-21 23:30:00,26.9,19.1,30.01,WSW,249,4.0,7.0,72,0.00,,---,0.00,VWS V14.01,2013-03-22 04:30:00,
2013-03-21 23:35:00,26.9,19.1,30.01,WNW,289,6.0,11.0,72,0.00,,---,0.00,VWS V14.01,2013-03-22 04:35:00,
2013-03-21 23:40:00,26.9,19.1,30.01,West,263,5.0,11.0,72,0.00,,---,0.00,VWS V14.01,2013-03-22 04:40:00,
2013-03-21 23:45:00,27.0,19.2,30.01,West,277,4.0,11.0,72,0.00,,---,0.00,VWS V14.01,2013-03-22 04:45:00,
2013-03-21 23:50:00,26.9,19.1,30.01,NNW,335,2.0,11.0,72,0.00,,---,0.00,VWS V14.01,2013-03-22 04:50:00,
2013-03-21 23:55:00,26.9,19.1,30.01,WNW,302,7.0,11.0,72,0.00,,---,0.00,VWS V14.01,2013-03-22 04:55:00,